����,���ϕ���(m/s),���ϕ���,�ő�u�ԕ���(m/s),�ő啗��������,�C��(��),���x(%),10���Ԉړ��ώZ�J��(mm),1���Ԉړ��ώZ�J��(mm),���J��(mm),�݌v�J��(mm)
2020-09-21T00:00:00+09:00,1.2,��,2.6,���쓌,17.9,88.8,0,0,0,0
2020-09-21T00:01:00+09:00,1,��,2,���쓌,17.9,89.4,0,0,0,0
2020-09-21T00:02:00+09:00,0.9,��,1.9,���k��,18,89.7,0,0,0,0
2020-09-21T00:03:00+09:00,0.9,��,1.9,���k��,18,89.2,0,0,0,0
2020-09-21T00:04:00+09:00,0.8,��,1.9,���k��,18,89.3,0,0,0,0
2020-09-21T00:05:00+09:00,0.8,��,1.9,���k��,18.1,89.2,0,0,0,0
2020-09-21T00:06:00+09:00,0.7,��,1.9,���k��,18,88.9,0,0,0,0
2020-09-21T00:07:00+09:00,0.7,���쓌,1.4,���k��,18,89.1,0,0,0,0
2020-09-21T00:08:00+09:00,0.7,���쓌,1.4,���k��,18,88.9,0,0,0,0
2020-09-21T00:09:00+09:00,0.7,���쓌,1.7,�쓌,18,89,0,0,0,0
2020-09-21T00:10:00+09:00,0.8,���쓌,2,���쓌,18.1,89.1,0,0,0,0
2020-09-21T00:11:00+09:00,1,�쓌,2.3,���쓌,18.1,88.3,0,0,0,0
2020-09-21T00:12:00+09:00,1.1,�쓌,2.3,���쓌,18.1,88.5,0,0,0,0
2020-09-21T00:13:00+09:00,1.2,�쓌,2.3,���쓌,18.1,88.4,0,0,0,0
2020-09-21T00:14:00+09:00,1.3,�쓌,2.3,���쓌,18.1,88.4,0,0,0,0
2020-09-21T00:15:00+09:00,1.4,�쓌,2.3,���쓌,18.1,88.5,0,0,0,0
2020-09-21T00:16:00+09:00,1.5,�쓌,2.3,���쓌,18.1,88.3,0,0,0,0
2020-09-21T00:17:00+09:00,1.6,�쓌,2.3,���쓌,18.1,88.1,0,0,0,0
2020-09-21T00:18:00+09:00,1.5,�쓌,2.3,���쓌,18.1,88.3,0,0,0,0
2020-09-21T00:19:00+09:00,1.5,�쓌,2.3,���쓌,18.4,88.8,0,0,0,0
2020-09-21T00:20:00+09:00,1.5,�쓌,2.3,���쓌,18.3,86.7,0,0,0,0
2020-09-21T00:21:00+09:00,1.3,�쓌,2.2,��쓌,18.2,87,0,0,0,0
2020-09-21T00:22:00+09:00,1.1,�쓌,2.2,��쓌,18.1,86.8,0,0,0,0
2020-09-21T00:23:00+09:00,1.1,�쓌,2.2,��쓌,18.1,87,0,0,0,0
2020-09-21T00:24:00+09:00,1,�쓌,2.2,��쓌,18.2,87.1,0,0,0,0
2020-09-21T00:25:00+09:00,0.9,�쓌,2.2,��쓌,17.9,86.5,0,0,0,0
2020-09-21T00:26:00+09:00,0.8,�쓌,2.2,��쓌,17.8,87.2,0,0,0,0
2020-09-21T00:27:00+09:00,0.8,���쓌,2.2,��쓌,17.7,88.2,0,0,0,0
2020-09-21T00:28:00+09:00,0.9,���쓌,2.2,��쓌,17.7,89,0,0,0,0
2020-09-21T00:29:00+09:00,0.9,���쓌,2.2,��쓌,17.9,88.6,0,0,0,0
2020-09-21T00:30:00+09:00,0.9,���쓌,1.9,�쓌,18.1,87,0,0,0,0
2020-09-21T00:31:00+09:00,0.9,���쓌,1.9,�쓌,18.1,86.6,0,0,0,0
2020-09-21T00:32:00+09:00,0.9,���쓌,1.9,�쓌,18,86.6,0,0,0,0
2020-09-21T00:33:00+09:00,0.9,��,1.9,�쓌,17.8,86.7,0,0,0,0
2020-09-21T00:34:00+09:00,0.9,��,1.9,�쓌,17.7,87.3,0,0,0,0
2020-09-21T00:35:00+09:00,0.9,��,1.9,�쓌,17.7,88.8,0,0,0,0
2020-09-21T00:36:00+09:00,0.9,��,1.9,�쓌,17.7,89.7,0,0,0,0
2020-09-21T00:37:00+09:00,0.9,��,1.9,�쓌,17.9,89.1,0,0,0,0
2020-09-21T00:38:00+09:00,0.9,��,1.9,�쓌,17.9,87.5,0,0,0,0
2020-09-21T00:39:00+09:00,0.8,���k��,1.9,�쓌,17.8,87.8,0,0,0,0
2020-09-21T00:40:00+09:00,0.8,�k��,1.9,�쓌,17.7,88.4,0,0,0,0
2020-09-21T00:41:00+09:00,0.9,�k��,1.9,�쓌,17.6,88.9,0,0,0,0
2020-09-21T00:42:00+09:00,0.9,���k��,1.9,�쓌,17.7,89,0,0,0,0
2020-09-21T00:43:00+09:00,1,���k��,1.9,�쓌,17.8,88.3,0,0,0,0
2020-09-21T00:44:00+09:00,1,���k��,1.9,�쓌,17.8,87.8,0,0,0,0
2020-09-21T00:45:00+09:00,0.9,��,1.9,�쓌,17.8,87.4,0,0,0,0
2020-09-21T00:46:00+09:00,0.9,��,1.9,�쓌,17.8,87.3,0,0,0,0
2020-09-21T00:47:00+09:00,1,���k��,2.1,���k��,17.8,86.9,0,0,0,0
2020-09-21T00:48:00+09:00,1,���k��,2.1,���k��,18.2,84.9,0,0,0,0
2020-09-21T00:49:00+09:00,1,��,2.3,��,18.5,82.3,0,0,0,0
2020-09-21T00:50:00+09:00,1.2,��,4.2,���쓌,18.4,81.9,0,0,0,0
2020-09-21T00:51:00+09:00,1.3,��,4.2,���쓌,18.7,80.6,0,0,0,0
2020-09-21T00:52:00+09:00,1.4,��,4.2,���쓌,19,78.4,0,0,0,0
2020-09-21T00:53:00+09:00,1.5,��,4.2,���쓌,18.9,77.7,0,0,0,0
2020-09-21T00:54:00+09:00,1.4,��,4.2,���쓌,18.5,79,0,0,0,0
2020-09-21T00:55:00+09:00,1.4,���k��,4.2,���쓌,18.1,82.3,0,0,0,0
2020-09-21T00:56:00+09:00,1.3,��,4.2,���쓌,17.9,83.4,0,0,0,0
2020-09-21T00:57:00+09:00,1.3,��,4.2,���쓌,18.1,83.1,0,0,0,0
2020-09-21T00:58:00+09:00,1.4,��,4.2,���쓌,18.2,82.1,0,0,0,0
2020-09-21T00:59:00+09:00,1.4,��,4.2,���쓌,18.3,81.8,0,0,0,0
2020-09-21T01:00:00+09:00,1.4,��,4.2,��,18.4,80.7,0,0,0,0
2020-09-21T01:01:00+09:00,1.2,��,3,���k��,18.4,80.8,0,0,0,0
2020-09-21T01:02:00+09:00,1.1,��,2.8,��,18.3,82.3,0,0,0,0
2020-09-21T01:03:00+09:00,1.1,���쓌,2.8,��,18.5,80.8,0,0,0,0
2020-09-21T01:04:00+09:00,1.3,���쓌,3.4,���쓌,18.7,78.6,0,0,0,0
2020-09-21T01:05:00+09:00,1.5,���쓌,3.4,���쓌,18.8,77.6,0,0,0,0
2020-09-21T01:06:00+09:00,1.7,���쓌,3.4,���쓌,18.8,76.9,0,0,0,0
2020-09-21T01:07:00+09:00,1.8,���쓌,3.5,���쓌,18.9,76.1,0,0,0,0
2020-09-21T01:08:00+09:00,2,���쓌,3.5,���쓌,18.9,75.7,0,0,0,0
2020-09-21T01:09:00+09:00,2,���쓌,3.5,���쓌,19,75.4,0,0,0,0
2020-09-21T01:10:00+09:00,2,���쓌,3.5,���쓌,19,74.9,0,0,0,0
2020-09-21T01:11:00+09:00,2,���쓌,3.5,���쓌,18.6,76,0,0,0,0
2020-09-21T01:12:00+09:00,2.1,���쓌,3.5,���쓌,18.6,76.8,0,0,0,0
2020-09-21T01:13:00+09:00,2.1,���쓌,3.5,���쓌,18.9,75.7,0,0,0,0
2020-09-21T01:14:00+09:00,2,���쓌,3.5,���쓌,19,75.2,0,0,0,0
2020-09-21T01:15:00+09:00,1.9,���쓌,3.5,���쓌,19,75.1,0,0,0,0
2020-09-21T01:16:00+09:00,1.8,���쓌,3.5,���쓌,19,75.1,0,0,0,0
2020-09-21T01:17:00+09:00,1.6,���쓌,3.5,��쓌,19,74.7,0,0,0,0
2020-09-21T01:18:00+09:00,1.5,���쓌,3.5,��쓌,19,74.6,0,0,0,0
2020-09-21T01:19:00+09:00,1.6,���쓌,3.1,���쓌,18.7,75.5,0,0,0,0
2020-09-21T01:20:00+09:00,1.7,���쓌,3.1,���쓌,18.6,76.3,0,0,0,0
2020-09-21T01:21:00+09:00,1.7,���쓌,3.1,���쓌,18.7,76.7,0,0,0,0
2020-09-21T01:22:00+09:00,1.7,�쓌,3.1,���쓌,18.8,76.7,0,0,0,0
2020-09-21T01:23:00+09:00,1.7,���쓌,3.1,���쓌,18.6,76.4,0,0,0,0
2020-09-21T01:24:00+09:00,1.7,���쓌,3.1,���쓌,18.6,76.9,0,0,0,0
2020-09-21T01:25:00+09:00,1.7,���쓌,3.1,���쓌,18.6,76.9,0,0,0,0
2020-09-21T01:26:00+09:00,1.8,���쓌,3.1,���쓌,18.8,76.2,0,0,0,0
2020-09-21T01:27:00+09:00,1.8,���쓌,3.1,���쓌,18.8,75.4,0,0,0,0
2020-09-21T01:28:00+09:00,1.8,���쓌,3.1,���쓌,18.7,75.6,0,0,0,0
2020-09-21T01:29:00+09:00,1.6,���쓌,3.1,�쓌,18.6,76.7,0,0,0,0
2020-09-21T01:30:00+09:00,1.5,���쓌,2.7,�쓌,18.4,77.1,0,0,0,0
2020-09-21T01:31:00+09:00,1.5,���쓌,2.4,���쓌,18.3,77.8,0,0,0,0
2020-09-21T01:32:00+09:00,1.5,���쓌,2.4,���쓌,18.5,77.4,0,0,0,0
2020-09-21T01:33:00+09:00,1.5,���쓌,2.4,���쓌,18.5,77,0,0,0,0
2020-09-21T01:34:00+09:00,1.4,���쓌,2.4,���쓌,18.3,78,0,0,0,0
2020-09-21T01:35:00+09:00,1.4,���쓌,2.4,���쓌,18.3,78.3,0,0,0,0
2020-09-21T01:36:00+09:00,1.4,���쓌,2.4,���쓌,18.2,78.4,0,0,0,0
2020-09-21T01:37:00+09:00,1.4,���쓌,2.2,��,18.2,78.7,0,0,0,0
2020-09-21T01:38:00+09:00,1.4,���쓌,2.2,��,18.2,78.8,0,0,0,0
2020-09-21T01:39:00+09:00,1.4,���쓌,2.2,��,18.2,78.8,0,0,0,0
2020-09-21T01:40:00+09:00,1.5,���쓌,2.2,��,18,79.6,0,0,0,0
2020-09-21T01:41:00+09:00,1.6,���쓌,2.2,��,18,80.2,0,0,0,0
2020-09-21T01:42:00+09:00,1.6,���쓌,2.3,�쓌,17.9,80.8,0,0,0,0
2020-09-21T01:43:00+09:00,1.7,���쓌,2.3,�쓌,17.9,81.3,0,0,0,0
2020-09-21T01:44:00+09:00,1.7,���쓌,2.3,�쓌,17.9,81.5,0,0,0,0
2020-09-21T01:45:00+09:00,1.7,���쓌,2.3,�쓌,18,81,0,0,0,0
2020-09-21T01:46:00+09:00,1.6,���쓌,2.3,�쓌,18.2,80.5,0,0,0,0
2020-09-21T01:47:00+09:00,1.6,���쓌,2.3,�쓌,18.2,80.2,0,0,0,0
2020-09-21T01:48:00+09:00,1.6,���쓌,2.3,�쓌,18.1,80.3,0,0,0,0
2020-09-21T01:49:00+09:00,1.5,���쓌,2.3,�쓌,18.1,80.4,0,0,0,0
2020-09-21T01:50:00+09:00,1.4,���쓌,2.3,�쓌,18,80.7,0,0,0,0
2020-09-21T01:51:00+09:00,1.3,��,2.3,�쓌,17.8,81.1,0,0,0,0
2020-09-21T01:52:00+09:00,1.2,��,2,���쓌,17.7,81.7,0,0,0,0
2020-09-21T01:53:00+09:00,1.2,��,1.7,�쓌,17.6,82.3,0,0,0,0
2020-09-21T01:54:00+09:00,1.2,��,1.9,���쓌,17.7,82.8,0,0,0,0
2020-09-21T01:55:00+09:00,1.2,��,1.9,���쓌,17.6,82.5,0,0,0,0
2020-09-21T01:56:00+09:00,1.2,��,1.9,���쓌,17.5,83,0,0,0,0
2020-09-21T01:57:00+09:00,1.3,���쓌,2.1,�쓌,17.4,83.5,0,0,0,0
2020-09-21T01:58:00+09:00,1.4,���쓌,2.2,�쓌,17.3,84.1,0,0,0,0
2020-09-21T01:59:00+09:00,1.5,���쓌,2.2,�쓌,17.3,84.6,0,0,0,0
2020-09-21T02:00:00+09:00,1.6,���쓌,2.2,�쓌,17.3,84.7,0,0,0,0
2020-09-21T02:01:00+09:00,1.7,���쓌,2.2,�쓌,17.3,84.8,0,0,0,0
2020-09-21T02:02:00+09:00,1.7,���쓌,2.2,�쓌,17.3,84.5,0,0,0,0
2020-09-21T02:03:00+09:00,1.7,���쓌,2.2,�쓌,17.4,84,0,0,0,0
2020-09-21T02:04:00+09:00,1.6,���쓌,2.2,�쓌,17.6,83.7,0,0,0,0
2020-09-21T02:05:00+09:00,1.5,���쓌,2.2,�쓌,17.5,83.1,0,0,0,0
2020-09-21T02:06:00+09:00,1.5,���쓌,2.2,�쓌,17.3,83.3,0,0,0,0
2020-09-21T02:07:00+09:00,1.3,���쓌,2.2,�쓌,17.2,83.9,0,0,0,0
2020-09-21T02:08:00+09:00,1.3,��,2.2,���쓌,17,84.5,0,0,0,0
2020-09-21T02:09:00+09:00,1.1,��,2.2,���쓌,16.9,85.4,0,0,0,0
2020-09-21T02:10:00+09:00,1.1,��,2.2,���쓌,17,85.9,0,0,0,0
2020-09-21T02:11:00+09:00,1,��,2,���쓌,16.9,86.1,0,0,0,0
2020-09-21T02:12:00+09:00,0.9,��,1.9,���쓌,16.9,86.5,0,0,0,0
2020-09-21T02:13:00+09:00,0.9,��,1.6,���k��,17,86.7,0,0,0,0
2020-09-21T02:14:00+09:00,0.9,��,1.6,���k��,17.1,86.3,0,0,0,0
2020-09-21T02:15:00+09:00,0.9,��,1.6,���k��,17.2,85.6,0,0,0,0
2020-09-21T02:16:00+09:00,0.9,��,1.6,���k��,17.2,85.4,0,0,0,0
2020-09-21T02:17:00+09:00,1,��,1.6,���k��,17.2,85.3,0,0,0,0
2020-09-21T02:18:00+09:00,1,��,1.7,���쓌,17.2,85.2,0,0,0,0
2020-09-21T02:19:00+09:00,1.1,��,1.8,���쓌,17.2,84.9,0,0,0,0
2020-09-21T02:20:00+09:00,1.1,��,1.8,���쓌,17.3,84.9,0,0,0,0
2020-09-21T02:21:00+09:00,1.1,���쓌,1.8,���쓌,17.3,84.5,0,0,0,0
2020-09-21T02:22:00+09:00,1.2,���쓌,1.8,���쓌,17.2,84.4,0,0,0,0
2020-09-21T02:23:00+09:00,1.2,���쓌,2.2,���쓌,17.2,84.3,0,0,0,0
2020-09-21T02:24:00+09:00,1.3,���쓌,2.2,���쓌,17.1,84.5,0,0,0,0
2020-09-21T02:25:00+09:00,1.4,���쓌,2.2,���쓌,17.1,84.9,0,0,0,0
2020-09-21T02:26:00+09:00,1.4,���쓌,2.2,���쓌,17.1,85.1,0,0,0,0
2020-09-21T02:27:00+09:00,1.5,���쓌,2.2,���쓌,17.1,85.3,0,0,0,0
2020-09-21T02:28:00+09:00,1.5,���쓌,2.2,���쓌,17.1,85,0,0,0,0
2020-09-21T02:29:00+09:00,1.5,���쓌,2.2,���쓌,17.2,84.9,0,0,0,0
2020-09-21T02:30:00+09:00,1.5,���쓌,2.2,���쓌,17.2,84.7,0,0,0,0
2020-09-21T02:31:00+09:00,1.4,���쓌,2.2,���쓌,17.2,84.3,0,0,0,0
2020-09-21T02:32:00+09:00,1.4,���쓌,2.2,���쓌,17.1,84.4,0,0,0,0
2020-09-21T02:33:00+09:00,1.3,���쓌,2.1,���쓌,17.1,84.5,0,0,0,0
2020-09-21T02:34:00+09:00,1.3,���쓌,2.1,���쓌,17.2,84.7,0,0,0,0
2020-09-21T02:35:00+09:00,1.2,��,2.1,���쓌,17.1,84.4,0,0,0,0
2020-09-21T02:36:00+09:00,1.1,��,2,���쓌,16.9,84.5,0,0,0,0
2020-09-21T02:37:00+09:00,1,��,1.6,��,17,85.1,0,0,0,0
2020-09-21T02:38:00+09:00,1,��,1.6,��,17.1,84.5,0,0,0,0
2020-09-21T02:39:00+09:00,1,��,1.6,��,17.1,84.3,0,0,0,0
2020-09-21T02:40:00+09:00,1.1,��,2.1,��,17.1,84.3,0,0,0,0
2020-09-21T02:41:00+09:00,1.2,��,2.1,��,17,84,0,0,0,0
2020-09-21T02:42:00+09:00,1.2,���쓌,2.1,��,17,84.5,0,0,0,0
2020-09-21T02:43:00+09:00,1.1,���쓌,2.1,��,17.3,85.3,0,0,0,0
2020-09-21T02:44:00+09:00,1,���쓌,2.1,��,17.1,84.4,0,0,0,0
2020-09-21T02:45:00+09:00,1.2,���쓌,2.1,��,17,84.1,0,0,0,0
2020-09-21T02:46:00+09:00,1.2,���쓌,2.1,��,17,84.2,0,0,0,0
2020-09-21T02:47:00+09:00,1.1,���쓌,2.1,��,17,84.8,0,0,0,0
2020-09-21T02:48:00+09:00,1.1,���쓌,2.1,��,16.9,84.9,0,0,0,0
2020-09-21T02:49:00+09:00,1.2,���쓌,2.4,���쓌,16.9,84.9,0,0,0,0
2020-09-21T02:50:00+09:00,1.1,���쓌,2.4,���쓌,16.9,84.7,0,0,0,0
2020-09-21T02:51:00+09:00,1.1,���쓌,2.4,���쓌,16.7,84.2,0,0,0,0
2020-09-21T02:52:00+09:00,1.2,��,2.4,���쓌,16.5,85.4,0,0,0,0
2020-09-21T02:53:00+09:00,1.4,��,2.4,���쓌,16.5,86.1,0,0,0,0
2020-09-21T02:54:00+09:00,1.4,��,2.4,���쓌,16.5,86.3,0,0,0,0
2020-09-21T02:55:00+09:00,1.4,��,2.4,���쓌,16.6,86.5,0,0,0,0
2020-09-21T02:56:00+09:00,1.4,���k��,2.4,���쓌,16.8,85.8,0,0,0,0
2020-09-21T02:57:00+09:00,1.5,��,2.4,���쓌,16.8,85.2,0,0,0,0
2020-09-21T02:58:00+09:00,1.5,��,2.4,���쓌,16.9,84.9,0,0,0,0
2020-09-21T02:59:00+09:00,1.4,��,2.4,���k��,16.9,84.6,0,0,0,0
2020-09-21T03:00:00+09:00,1.4,��,2.4,���k��,16.8,84.6,0,0,0,0
2020-09-21T03:01:00+09:00,1.3,��,2.2,�k��,16.7,84.8,0,0,0,0
2020-09-21T03:02:00+09:00,1.2,��,2.1,���쓌,16.9,85.8,0,0,0,0
2020-09-21T03:03:00+09:00,1.2,���쓌,2.1,���쓌,16.8,85,0,0,0,0
2020-09-21T03:04:00+09:00,1.3,���쓌,2.5,�쓌,16.7,85.2,0,0,0,0
2020-09-21T03:05:00+09:00,1.4,���쓌,2.7,�쓌,16.8,85.4,0,0,0,0
2020-09-21T03:06:00+09:00,1.4,���쓌,2.7,�쓌,16.8,85.5,0,0,0,0
2020-09-21T03:07:00+09:00,1.4,���쓌,2.7,�쓌,16.9,85.3,0,0,0,0
2020-09-21T03:08:00+09:00,1.5,�쓌,2.7,�쓌,16.9,85.2,0,0,0,0
2020-09-21T03:09:00+09:00,1.6,�쓌,2.9,��,16.9,85.1,0,0,0,0
2020-09-21T03:10:00+09:00,1.8,�쓌,2.9,��,16.9,85,0,0,0,0
2020-09-21T03:11:00+09:00,1.8,���쓌,2.9,��,16.9,85.1,0,0,0,0
2020-09-21T03:12:00+09:00,1.8,���쓌,2.9,��,16.9,85.3,0,0,0,0
2020-09-21T03:13:00+09:00,1.7,���쓌,2.9,��,16.9,85.2,0,0,0,0
2020-09-21T03:14:00+09:00,1.6,���쓌,2.9,��,16.8,85.4,0,0,0,0
2020-09-21T03:15:00+09:00,1.5,��,2.9,��,16.7,85.6,0,0,0,0
2020-09-21T03:16:00+09:00,1.5,��,2.9,��,16.6,86,0,0,0,0
2020-09-21T03:17:00+09:00,1.4,��,2.9,��,16.6,86.1,0,0,0,0
2020-09-21T03:18:00+09:00,1.2,��,2.9,��,16.6,86,0,0,0,0
2020-09-21T03:19:00+09:00,1.1,��,2.7,���쓌,16.6,86,0,0,0,0
2020-09-21T03:20:00+09:00,0.9,���k��,2.2,���k��,16.4,86.2,0,0,0,0
2020-09-21T03:21:00+09:00,0.8,���k��,2.2,���k��,16.5,87.1,0,0,0,0
2020-09-21T03:22:00+09:00,0.8,���k��,2.2,���k��,16.4,87.2,0,0,0,0
2020-09-21T03:23:00+09:00,0.8,���k��,2.2,���k��,16.3,87.6,0,0,0,0
2020-09-21T03:24:00+09:00,0.8,���k��,2.2,���k��,16.2,87.7,0,0,0,0
2020-09-21T03:25:00+09:00,0.7,���k��,2.2,���k��,16.2,87.7,0,0,0,0
2020-09-21T03:26:00+09:00,0.8,���k��,2,���k��,16.2,87.9,0,0,0,0
2020-09-21T03:27:00+09:00,0.9,���k��,2.1,���쓌,16.4,87.9,0,0,0,0
2020-09-21T03:28:00+09:00,1,���k��,2.2,���쓌,16.4,86.7,0,0,0,0
2020-09-21T03:29:00+09:00,1.2,���k��,2.4,���쓌,16.3,86.4,0,0,0,0
2020-09-21T03:30:00+09:00,1.3,��,2.4,���쓌,16.3,86.8,0,0,0,0
2020-09-21T03:31:00+09:00,1.5,��,2.6,���쓌,16.2,87.1,0,0,0,0
2020-09-21T03:32:00+09:00,1.6,��,2.6,���쓌,16.2,87.6,0,0,0,0
2020-09-21T03:33:00+09:00,1.8,��,2.7,��,16.3,88.1,0,0,0,0
2020-09-21T03:34:00+09:00,1.9,���쓌,2.8,���쓌,16.3,88.1,0,0,0,0
2020-09-21T03:35:00+09:00,2,���쓌,2.8,���쓌,16.4,87.7,0,0,0,0
2020-09-21T03:36:00+09:00,2.1,���쓌,2.8,���쓌,16.5,87.7,0,0,0,0
2020-09-21T03:37:00+09:00,2.1,���쓌,2.8,���쓌,16.4,87.1,0,0,0,0
2020-09-21T03:38:00+09:00,2,���쓌,2.8,���쓌,16.5,87.6,0,0,0,0
2020-09-21T03:39:00+09:00,2,��,2.8,���쓌,16.5,87.5,0,0,0,0
2020-09-21T03:40:00+09:00,2,��,2.8,���쓌,16.5,87.2,0,0,0,0
2020-09-21T03:41:00+09:00,1.9,��,2.8,���쓌,16.4,86.7,0,0,0,0
2020-09-21T03:42:00+09:00,1.8,��,2.8,���쓌,16.4,86.7,0,0,0,0
2020-09-21T03:43:00+09:00,1.7,��,2.8,���쓌,16.3,86.5,0,0,0,0
2020-09-21T03:44:00+09:00,1.6,��,2.7,���쓌,16.3,87.1,0,0,0,0
2020-09-21T03:45:00+09:00,1.4,��,2.3,���k��,16.3,87.4,0,0,0,0
2020-09-21T03:46:00+09:00,1.3,��,2.3,���k��,16.2,87.2,0,0,0,0
2020-09-21T03:47:00+09:00,1.2,��,2.3,���k��,16.2,87.4,0,0,0,0
2020-09-21T03:48:00+09:00,1.2,��,2.3,���k��,16.1,87.3,0,0,0,0
2020-09-21T03:49:00+09:00,1.1,��,2.3,���k��,16,87,0,0,0,0
2020-09-21T03:50:00+09:00,1.1,��,2.3,���k��,16,87.2,0,0,0,0
2020-09-21T03:51:00+09:00,1.1,��,2.1,��,16,87.6,0,0,0,0
2020-09-21T03:52:00+09:00,1.2,��,2.2,���쓌,16,87.8,0,0,0,0
2020-09-21T03:53:00+09:00,1.2,��,2.2,���쓌,16,87.8,0,0,0,0
2020-09-21T03:54:00+09:00,1.3,��,2.2,���쓌,15.9,87.9,0,0,0,0
2020-09-21T03:55:00+09:00,1.4,��,2.2,���쓌,15.9,88.4,0,0,0,0
2020-09-21T03:56:00+09:00,1.4,��,2.2,���쓌,16,88.8,0,0,0,0
2020-09-21T03:57:00+09:00,1.4,���쓌,2.2,���쓌,16,88.9,0,0,0,0
2020-09-21T03:58:00+09:00,1.3,���쓌,2.2,���쓌,16,88.7,0,0,0,0
2020-09-21T03:59:00+09:00,1.3,���쓌,2.2,���쓌,16,88.8,0,0,0,0
2020-09-21T04:00:00+09:00,1.3,���쓌,2.2,���쓌,16,88.7,0,0,0,0
2020-09-21T04:01:00+09:00,1.2,���쓌,2.2,���쓌,16,88.6,0,0,0,0
2020-09-21T04:02:00+09:00,1.2,���쓌,2.2,���쓌,16,88.6,0,0,0,0
2020-09-21T04:03:00+09:00,1.2,���쓌,2.2,���쓌,15.9,88.5,0,0,0,0
2020-09-21T04:04:00+09:00,1.2,���쓌,2,���쓌,15.9,88.2,0,0,0,0
2020-09-21T04:05:00+09:00,1.2,���쓌,2.8,�쓌,15.8,88.3,0,0,0,0
2020-09-21T04:06:00+09:00,1.2,���쓌,2.8,�쓌,15.9,88.6,0,0,0,0
2020-09-21T04:07:00+09:00,1.2,���쓌,2.8,�쓌,15.9,88.5,0,0,0,0
2020-09-21T04:08:00+09:00,1.3,���쓌,2.8,�쓌,16,88.5,0,0,0,0
2020-09-21T04:09:00+09:00,1.3,���쓌,2.8,�쓌,16,88,0,0,0,0
2020-09-21T04:10:00+09:00,1.3,���쓌,2.8,�쓌,15.8,87.2,0,0,0,0
2020-09-21T04:11:00+09:00,1.2,���쓌,2.8,�쓌,15.8,87.7,0,0,0,0
2020-09-21T04:12:00+09:00,1.1,��,2.8,�쓌,15.7,88.1,0,0,0,0
2020-09-21T04:13:00+09:00,1.1,��,2.8,�쓌,15.7,88.4,0,0,0,0
2020-09-21T04:14:00+09:00,1,��,2.8,�쓌,15.9,88.9,0,0,0,0
2020-09-21T04:15:00+09:00,0.9,��,2.2,��,16,88.5,0,0,0,0
2020-09-21T04:16:00+09:00,1,��,2.2,��,16,87.8,0,0,0,0
2020-09-21T04:17:00+09:00,0.9,��,2.2,��,15.9,87.2,0,0,0,0
2020-09-21T04:18:00+09:00,0.9,��,2.2,��,16,87.6,0,0,0,0
2020-09-21T04:19:00+09:00,0.8,��,2.2,��,15.9,87.6,0,0,0,0
2020-09-21T04:20:00+09:00,0.8,��,2.2,��,15.8,88,0,0,0,0
2020-09-21T04:21:00+09:00,0.8,��,2.2,��,15.9,88.5,0,0,0,0
2020-09-21T04:22:00+09:00,0.9,��,2.2,��,16,88.8,0,0,0,0
2020-09-21T04:23:00+09:00,1,��,2.7,�쓌,16.1,88.2,0,0,0,0
2020-09-21T04:24:00+09:00,1.1,��,2.7,�쓌,16.2,87.5,0,0,0,0
2020-09-21T04:25:00+09:00,1.1,��,2.7,�쓌,16.2,86.8,0,0,0,0
2020-09-21T04:26:00+09:00,1.2,��,2.7,�쓌,16.2,86.4,0,0,0,0
2020-09-21T04:27:00+09:00,1.4,��,2.7,�쓌,16.2,86,0,0,0,0
2020-09-21T04:28:00+09:00,1.5,��,2.7,�쓌,16.1,85.7,0,0,0,0
2020-09-21T04:29:00+09:00,1.6,��,2.7,�쓌,16,85.8,0,0,0,0
2020-09-21T04:30:00+09:00,1.6,��,2.7,�쓌,16,86.2,0,0,0,0
2020-09-21T04:31:00+09:00,1.6,��,2.7,�쓌,15.9,86.6,0,0,0,0
2020-09-21T04:32:00+09:00,1.6,��,2.7,�쓌,15.9,87.4,0,0,0,0
2020-09-21T04:33:00+09:00,1.6,��,2.6,��,15.9,88,0,0,0,0
2020-09-21T04:34:00+09:00,1.6,��,2.6,��,15.9,88.5,0,0,0,0
2020-09-21T04:35:00+09:00,1.5,���k��,2.6,��,15.8,88.6,0,0,0,0
2020-09-21T04:36:00+09:00,1.5,���k��,2.6,��,15.8,88.7,0,0,0,0
2020-09-21T04:37:00+09:00,1.5,���k��,2.6,��,15.8,88.6,0,0,0,0
2020-09-21T04:38:00+09:00,1.5,���k��,2.6,���쓌,15.9,88.6,0,0,0,0
2020-09-21T04:39:00+09:00,1.6,���k��,3.3,���쓌,16,88.2,0,0,0,0
2020-09-21T04:40:00+09:00,1.6,���k��,3.3,���쓌,16,87,0,0,0,0
2020-09-21T04:41:00+09:00,1.6,���k��,3.3,���쓌,15.9,87.1,0,0,0,0
2020-09-21T04:42:00+09:00,1.6,���k��,3.3,���쓌,15.8,87.8,0,0,0,0
2020-09-21T04:43:00+09:00,1.6,���k��,3.3,���쓌,15.8,88.3,0,0,0,0
2020-09-21T04:44:00+09:00,1.6,���k��,3.3,���쓌,15.9,88.8,0,0,0,0
2020-09-21T04:45:00+09:00,1.7,���k��,3.3,���쓌,16,88.3,0,0,0,0
2020-09-21T04:46:00+09:00,1.7,���k��,3.3,���쓌,15.9,87.8,0,0,0,0
2020-09-21T04:47:00+09:00,1.8,���k��,3.3,���쓌,15.8,88.5,0,0,0,0
2020-09-21T04:48:00+09:00,1.7,���k��,3.3,���쓌,15.7,89,0,0,0,0
2020-09-21T04:49:00+09:00,1.7,���k��,2.9,���k��,15.6,89.5,0,0,0,0
2020-09-21T04:50:00+09:00,1.8,���k��,2.9,���k��,15.6,89.9,0,0,0,0
2020-09-21T04:51:00+09:00,1.8,���k��,2.9,���k��,15.5,90.1,0,0,0,0
2020-09-21T04:52:00+09:00,1.8,���k��,2.9,���k��,15.6,90.7,0,0,0,0
2020-09-21T04:53:00+09:00,1.8,���k��,2.9,���k��,15.6,91,0,0,0,0
2020-09-21T04:54:00+09:00,1.8,���k��,2.9,���k��,15.7,91,0,0,0,0
2020-09-21T04:55:00+09:00,1.8,���k��,2.9,���k��,15.7,90.8,0,0,0,0
2020-09-21T04:56:00+09:00,1.8,���k��,2.9,���k��,15.8,90.4,0,0,0,0
2020-09-21T04:57:00+09:00,1.7,���k��,2.9,���k��,15.8,90.2,0,0,0,0
2020-09-21T04:58:00+09:00,1.7,��,2.9,���k��,15.8,89.8,0,0,0,0
2020-09-21T04:59:00+09:00,1.6,��,2.6,��,15.8,89.6,0,0,0,0
2020-09-21T05:00:00+09:00,1.6,��,2.6,��,15.8,89.4,0,0,0,0
2020-09-21T05:01:00+09:00,1.6,��,2.6,��,15.7,89.4,0,0,0,0
2020-09-21T05:02:00+09:00,1.5,��,2.6,��,15.7,89.5,0,0,0,0
2020-09-21T05:03:00+09:00,1.5,��,2.6,��,15.6,89.6,0,0,0,0
2020-09-21T05:04:00+09:00,1.5,��,2.4,���k��,15.6,89.6,0,0,0,0
2020-09-21T05:05:00+09:00,1.5,��,2.4,���k��,15.6,89.6,0,0,0,0
2020-09-21T05:06:00+09:00,1.4,��,2.4,���k��,15.6,89.4,0,0,0,0
2020-09-21T05:07:00+09:00,1.4,��,2.4,���k��,15.5,89.2,0,0,0,0
2020-09-21T05:08:00+09:00,1.4,��,2.4,���k��,15.5,89.1,0,0,0,0
2020-09-21T05:09:00+09:00,1.4,��,2.4,���k��,15.5,89.3,0,0,0,0
2020-09-21T05:10:00+09:00,1.4,��,2.4,��,15.6,89.6,0,0,0,0
2020-09-21T05:11:00+09:00,1.3,��,2.4,��,15.5,89.3,0,0,0,0
2020-09-21T05:12:00+09:00,1.3,��,2.4,��,15.5,88.9,0,0,0,0
2020-09-21T05:13:00+09:00,1.3,��,2.4,��,15.5,89.1,0,0,0,0
2020-09-21T05:14:00+09:00,1.3,��,2.4,��,15.5,88.9,0,0,0,0
2020-09-21T05:15:00+09:00,1.2,��,2,��,15.4,89,0,0,0,0
2020-09-21T05:16:00+09:00,1.2,��,2,��,15.4,89.3,0,0,0,0
2020-09-21T05:17:00+09:00,1.2,��,2,��,15.4,89.8,0,0,0,0
2020-09-21T05:18:00+09:00,1.2,��,2,��,15.4,90.2,0,0,0,0
2020-09-21T05:19:00+09:00,1.2,��,2,��,15.4,90.4,0,0,0,0
2020-09-21T05:20:00+09:00,1.3,��,2.2,��,15.5,90.9,0,0,0,0
2020-09-21T05:21:00+09:00,1.4,��,2.6,��,15.5,91,0,0,0,0
2020-09-21T05:22:00+09:00,1.5,��,2.7,���쓌,15.5,90.8,0,0,0,0
2020-09-21T05:23:00+09:00,1.5,��,2.7,���쓌,15.5,90.6,0,0,0,0
2020-09-21T05:24:00+09:00,1.6,��,2.7,���쓌,15.4,90.4,0,0,0,0
2020-09-21T05:25:00+09:00,1.7,��,2.7,���쓌,15.4,90.7,0,0,0,0
2020-09-21T05:26:00+09:00,1.7,��,2.7,���쓌,15.4,91,0,0,0,0
2020-09-21T05:27:00+09:00,1.8,��,2.7,���쓌,15.4,91.3,0,0,0,0
2020-09-21T05:28:00+09:00,1.9,��,2.7,���쓌,15.4,91.5,0,0,0,0
2020-09-21T05:29:00+09:00,1.9,��,2.7,���쓌,15.4,91.4,0,0,0,0
2020-09-21T05:30:00+09:00,1.9,��,2.7,���쓌,15.5,91.4,0,0,0,0
2020-09-21T05:31:00+09:00,1.8,��,2.7,���쓌,15.4,91,0,0,0,0
2020-09-21T05:32:00+09:00,1.7,��,2.6,��,15.3,91,0,0,0,0
2020-09-21T05:33:00+09:00,1.6,��,2.6,��,15.3,91.2,0,0,0,0
2020-09-21T05:34:00+09:00,1.6,��,2.6,��,15.3,91.4,0,0,0,0
2020-09-21T05:35:00+09:00,1.5,��,2.6,��,15.3,91.5,0,0,0,0
2020-09-21T05:36:00+09:00,1.5,��,2.6,��,15.3,91.3,0,0,0,0
2020-09-21T05:37:00+09:00,1.4,��,2.5,��,15.2,91.2,0,0,0,0
2020-09-21T05:38:00+09:00,1.3,��,2.5,��,15.2,91.2,0,0,0,0
2020-09-21T05:39:00+09:00,1.2,��,2.1,���쓌,15.2,91.3,0,0,0,0
2020-09-21T05:40:00+09:00,1.3,��,2.3,��,15.1,91,0,0,0,0
2020-09-21T05:41:00+09:00,1.4,��,2.3,��,15.1,91.1,0,0,0,0
2020-09-21T05:42:00+09:00,1.4,��,2.3,��,15.1,91.2,0,0,0,0
2020-09-21T05:43:00+09:00,1.4,��,2.3,��,15,91.3,0,0,0,0
2020-09-21T05:44:00+09:00,1.5,���쓌,2.3,��,15,91.2,0,0,0,0
2020-09-21T05:45:00+09:00,1.5,���쓌,2.3,��,15,91.4,0,0,0,0
2020-09-21T05:46:00+09:00,1.5,���쓌,2.3,��,15,91.7,0,0,0,0
2020-09-21T05:47:00+09:00,1.6,���쓌,2.4,��,15,91.9,0,0,0,0
2020-09-21T05:48:00+09:00,1.7,���쓌,2.5,���쓌,15,92,0,0,0,0
2020-09-21T05:49:00+09:00,1.7,���쓌,2.5,���쓌,15,92.1,0,0,0,0
2020-09-21T05:50:00+09:00,1.7,���쓌,2.5,���쓌,15.1,92.3,0,0,0,0
2020-09-21T05:51:00+09:00,1.7,���쓌,2.5,���쓌,15.1,92.6,0,0,0,0
2020-09-21T05:52:00+09:00,1.7,���쓌,2.5,���쓌,15.1,92.4,0,0,0,0
2020-09-21T05:53:00+09:00,1.6,���쓌,2.5,���쓌,15,92.3,0,0,0,0
2020-09-21T05:54:00+09:00,1.5,��,2.5,���쓌,15,92.3,0,0,0,0
2020-09-21T05:55:00+09:00,1.4,��,2.5,���쓌,15.1,92.6,0,0,0,0
2020-09-21T05:56:00+09:00,1.3,��,2.5,���쓌,15.2,92.7,0,0,0,0
2020-09-21T05:57:00+09:00,1.2,��,2.5,���쓌,15.1,92.3,0,0,0,0
2020-09-21T05:58:00+09:00,1.1,��,2.5,��,15,92.1,0,0,0,0
2020-09-21T05:59:00+09:00,0.9,��,2.4,���쓌,15,92.3,0,0,0,0
2020-09-21T06:00:00+09:00,0.8,��,1.9,��,15,92.6,0,0,0,0
2020-09-21T06:01:00+09:00,0.8,��,1.9,��,15,92.6,0,0,0,0
2020-09-21T06:02:00+09:00,0.7,��,1.4,���쓌,15.1,92.8,0,0,0,0
2020-09-21T06:03:00+09:00,0.7,��,1.4,���쓌,15,92.6,0,0,0,0
2020-09-21T06:04:00+09:00,0.8,��,1.6,���쓌,15,92.4,0,0,0,0
2020-09-21T06:05:00+09:00,0.9,��,1.6,���쓌,15,92.5,0,0,0,0
2020-09-21T06:06:00+09:00,0.9,��,1.6,���쓌,15,92.5,0,0,0,0
2020-09-21T06:07:00+09:00,0.9,��,1.6,���쓌,14.9,92.4,0,0,0,0
2020-09-21T06:08:00+09:00,1,���쓌,1.6,���쓌,14.9,92.3,0,0,0,0
2020-09-21T06:09:00+09:00,1,��,1.6,���쓌,14.9,92.4,0,0,0,0
2020-09-21T06:10:00+09:00,1,��,1.6,���쓌,14.9,92.6,0,0,0,0
2020-09-21T06:11:00+09:00,1,��,1.6,���쓌,14.8,92.5,0,0,0,0
2020-09-21T06:12:00+09:00,1,��,1.6,���쓌,14.8,92.3,0,0,0,0
2020-09-21T06:13:00+09:00,1.1,��,1.6,���쓌,14.7,92.3,0,0,0,0
2020-09-21T06:14:00+09:00,1,��,1.6,���k��,14.6,92.6,0,0,0,0
2020-09-21T06:15:00+09:00,1,��,1.6,���k��,14.6,93,0,0,0,0
2020-09-21T06:16:00+09:00,0.9,��,1.6,���k��,14.7,93.4,0,0,0,0
2020-09-21T06:17:00+09:00,0.9,��,1.6,���k��,14.7,93.6,0,0,0,0
2020-09-21T06:18:00+09:00,0.9,���k��,1.6,���k��,14.8,93.7,0,0,0,0
2020-09-21T06:19:00+09:00,0.9,���k��,1.6,���k��,14.8,93.5,0,0,0,0
2020-09-21T06:20:00+09:00,1,���k��,1.6,���k��,14.8,93.5,0,0,0,0
2020-09-21T06:21:00+09:00,1,���k��,1.6,���k��,14.8,93.4,0,0,0,0
2020-09-21T06:22:00+09:00,1,���k��,1.6,���k��,14.8,93.4,0,0,0,0
2020-09-21T06:23:00+09:00,1,��,1.5,��,14.8,93.6,0,0,0,0
2020-09-21T06:24:00+09:00,1,��,1.6,��,14.9,93.7,0,0,0,0
2020-09-21T06:25:00+09:00,1.1,��,1.8,���쓌,14.9,93.8,0,0,0,0
2020-09-21T06:26:00+09:00,1.1,��,1.8,���쓌,14.9,93.8,0,0,0,0
2020-09-21T06:27:00+09:00,1.2,��,1.8,���쓌,14.9,93.6,0,0,0,0
2020-09-21T06:28:00+09:00,1.2,��,1.8,���쓌,15,93.6,0,0,0,0
2020-09-21T06:29:00+09:00,1.2,��,1.8,���쓌,15,93.4,0,0,0,0
2020-09-21T06:30:00+09:00,1.2,��,1.8,���쓌,14.9,93.2,0,0,0,0
2020-09-21T06:31:00+09:00,1.1,��,1.8,���쓌,15,93.1,0,0,0,0
2020-09-21T06:32:00+09:00,1.1,��,1.8,���쓌,15,93.1,0,0,0,0
2020-09-21T06:33:00+09:00,1,��,1.8,���쓌,14.9,92.8,0,0,0,0
2020-09-21T06:34:00+09:00,1,��,1.8,���쓌,14.9,92.7,0,0,0,0
2020-09-21T06:35:00+09:00,0.9,��,1.7,��,14.8,92.6,0,0,0,0
2020-09-21T06:36:00+09:00,0.9,��,1.7,��,14.8,92.9,0,0,0,0
2020-09-21T06:37:00+09:00,0.8,��,1.4,��,14.7,93.1,0,0,0,0
2020-09-21T06:38:00+09:00,0.8,���k��,1.3,���k��,14.7,93.5,0,0,0,0